Please be sure to check the latest weather conditions by clicking the link and viewing our local weather information!

Check Weather

Welcome to Lakeway Airpark (3R9)

FromTheAir

We’re a community airpark nestled within the town of Lakeway, Texas (17 miles northwest of downtown Austin).

Lakeway Airpark, Inc. was formed by Lakeway residents and interested parties to own and manage Lakeway Airpark (3R9).

The Airpark is a privately owned not for profit public use airport for residents and guests of Lakeway. No public funds are used and the airport is supported by fees and fuel sales at the airport.

Lakeway Airpark is an unmanned facility open for use from Sunrise to Sunset seven days a week. Takeoffs and landings are not permitted at night, between Sunset and Sunrise, by City Ordinance.

Quick Weather Info

Available data for KAUS from the past 2 hours

METAR
KAUS 020053Z 19008KT 10SM FEW030 SCT200 BKN250 27/22 A2999 RMK AO2 SLP147 T02670217
KAUS 012353Z 20010KT 10SM FEW018 SCT120 SCT200 BKN250 28/21 A2998 RMK AO2 SLP144 60001 T02780211 10317 20256 58019